Wind_Speed
12 12 12 11 11 11 11 11 10 10 10 10 9 9 9 8 8 8 8 8 9 9 9 8 8 8 8 8 8 8 7 8 8 8 8 8 8 9 9 10 10 11 12
12 12 13 13 13 13 12 12 11 11 11 11 11 10 10 10 10 9 9 9 9 8 8 8 8 8 8 8 8 8 8 8 8 9 9 9 9 10 10 11 12 12 13
13 13 14 14 14 14 14 14 13 12 12 12 11 11 11 11 11 11 10 10 9 9 8 8 8 8 9 9 9 9 9 9 9 10 10 10 10 10 11 12 13 13 14
13 14 15 15 15 15 14 14 14 14 13 13 13 13 13 12 12 12 12 11 11 10 9 9 9 9 9 9 9 10 10 10 10 10 11 11 11 12 12 13 14 15 16
14 15 15 15 16 16 15 15 15 15 15 15 14 13 13 12 12 12 13 12 12 11 11 11 10 10 10 10 10 10 11 11 12 12 12 13 13 14 15 15 16 17 17
16 17 17 16 16 16 17 17 16 16 15 15 14 14 14 13 13 13 13 13 13 13 12 12 12 12 11 11 12 12 12 12 13 13 14 15 16 16 17 17 17 18 18
18 18 18 18 17 17 17 17 17 17 17 16 16 15 15 15 15 15 14 14 14 14 13 13 13 12 13 13 13 14 14 14 14 15 16 16 17 18 18 18 19 19 20
20 19 18 18 17 17 17 17 17 17 17 17 17 17 17 16 16 15 15 15 16 16 15 15 15 14 14 14 14 14 14 15 15 16 17 18 19 19 19 19 20 20 21
20 20 19 18 18 18 18 18 18 18 18 18 18 17 17 17 17 17 16 16 16 17 17 17 16 16 16 16 16 16 16 16 17 17 18 19 19 20 21 21 21 22 22
22 21 20 19 19 19 19 19 18 18 19 19 19 19 19 18 18 19 18 18 18 18 18 18 18 18 18 18 18 18 18 18 19 19 20 20 21 21 22 22 22 23 23
22 21 21 20 20 20 19 19 19 19 19 19 19 19 20 20 20 20 20 20 19 19 19 19 20 20 20 20 20 20 20 20 20 21 22 22 22 22 23 23 24 24 24
23 22 21 21 21 21 20 20 20 20 19 19 20 20 20 20 20 20 21 21 20 20 19 20 21 21 22 22 21 21 21 21 22 22 22 22 22 23 23 24 24 24 24
24 24 23 22 22 22 21 21 21 21 20 20 20 20 20 20 21 21 21 21 21 21 21 21 21 22 22 22 22 22 22 22 23 23 23 23 23 24 24 24 25 25 25
26 25 25 24 23 23 23 22 22 21 21 20 20 20 21 21 21 21 21 22 22 22 23 22 22 22 23 23 22 23 23 23 23 23 24 24 24 25 26 26 26 26 27
27 27 26 26 25 25 24 23 22 22 22 21 21 22 21 21 21 22 23 23 23 23 24 24 24 23 23 24 24 24 24 24 23 23 24 25 25 26 26 27 27 28 28
29 28 28 27 27 26 26 24 24 23 23 22 23 22 21 21 22 22 23 24 23 23 24 23 24 24 25 25 25 25 24 25 25 26 26 26 26 26 27 28 28 29 29
30 29 29 28 27 27 27 26 25 24 24 23 23 21 21 22 22 22 23 23 23 23 24 24 25 25 25 25 25 25 25 26 26 26 26 26 28 28 29 29 29 30 30
30 29 29 28 28 28 27 27 26 26 25 24 24 24 23 23 23 23 23 23 24 24 25 25 25 26 26 25 25 25 25 25 26 26 27 28 29 29 29 29 30 31 31
29 28 27 26 27 27 27 27 26 26 26 25 24 25 25 25 25 24 24 24 24 24 25 25 25 25 25 24 23 24 25 26 26 27 28 29 30 30 31 32 32 32 33
28 28 27 26 26 26 26 26 26 26 25 24 24 24 24 24 24 24 24 24 24 25 25 25 25 24 23 24 24 25 26 27 27 28 28 29 30 31 31 32 33 33 34
28 28 27 26 26 26 26 26 25 25 25 25 25 25 24 24 24 25 24 25 25 25 24 24 23 23 24 25 26 26 27 27 28 29 29 30 30 31 31 32 33 33 34
28 28 27 26 26 26 26 26 25 26 26 26 26 25 25 25 25 25 24 24 25 25 25 24 24 24 24 25 26 26 27 28 29 30 30 31 30 31 31 32 33 34 34
28 28 27 26 25 25 25 25 26 26 26 25 25 25 25 25 25 25 25 25 25 25 25 25 24 24 25 25 26 27 27 28 28 29 30 30 31 31 31 31 32 33 34
28 27 26 25 25 25 25 24 24 25 24 25 26 25 25 25 25 25 25 25 26 25 25 25 24 25 25 25 26 27 27 28 28 28 29 30 30 31 31 32 33 33 34
27 27 25 24 25 25 25 24 24 24 24 24 25 24 24 25 25 25 26 26 26 25 25 24 24 24 25 26 26 27 28 28 28 29 29 29 30 30 31 31 32 32 33
27 26 25 24 25 25 24 24 23 24 24 24 24 24 24 24 25 25 25 25 24 24 24 24 24 24 25 25 25 26 26 27 28 28 28 29 29 30 31 32 32 33 34
Wind_Direction
301 301 304 305 302 302 300 298 296 293 289 286 283 283 281 277 277 283 286 287 286 287 286 286 287 288 291 293 295 296 299 303 303 303 304 307 305 303 304 303 303 303 303
298 297 297 297 296 295 294 291 292 289 285 284 283 281 279 279 278 280 282 287 287 287 287 286 285 285 287 290 293 295 296 298 301 303 301 303 305 304 304 303 303 302 301
296 296 295 295 293 293 291 288 285 285 284 283 282 280 278 277 278 279 279 284 284 283 285 285 284 285 284 286 289 291 290 292 296 299 300 302 304 304 304 303 303 301 300
300 298 296 293 291 289 288 286 283 280 280 281 281 282 279 276 275 276 275 276 279 277 278 279 281 283 285 287 288 290 289 290 293 295 299 301 303 303 304 303 303 302 301
301 303 303 299 293 287 283 283 282 278 277 277 278 279 279 275 273 274 274 274 273 272 273 275 278 281 281 284 287 289 289 290 291 291 294 297 299 302 302 301 301 301 299
299 301 302 300 296 290 285 282 281 279 276 275 275 275 276 273 271 272 274 272 272 270 270 273 276 279 279 281 283 287 290 292 292 291 292 293 295 298 300 302 301 301 300
297 298 298 296 294 294 290 285 281 278 275 273 272 272 272 271 272 273 270 269 269 269 270 274 277 278 279 279 283 285 287 290 293 293 292 293 294 297 300 302 302 302 302
294 296 295 293 291 290 290 287 283 280 277 273 271 270 270 270 270 272 271 268 267 266 268 272 276 277 277 278 283 287 290 292 295 295 294 294 294 297 299 300 300 301 301
291 292 292 290 289 286 287 285 284 281 277 274 271 271 271 269 268 270 272 269 268 267 268 271 273 274 274 275 278 282 287 291 296 298 298 297 297 298 299 300 301 300 301
289 288 288 286 285 285 285 285 283 282 279 276 272 272 272 270 269 270 270 269 269 269 269 270 272 272 273 275 278 280 283 286 290 294 299 299 297 298 298 298 299 300 300
287 287 286 284 283 283 284 284 283 282 280 278 275 273 271 269 269 271 271 269 269 268 268 270 272 273 274 275 277 278 281 284 287 290 293 296 296 297 297 298 299 300 300
286 286 284 282 280 281 282 282 281 280 280 279 276 272 271 271 271 272 272 271 269 270 270 271 272 274 276 275 276 278 280 284 287 290 291 293 294 295 296 297 298 300 301
282 283 283 281 279 279 280 279 278 278 279 278 277 274 272 272 273 273 273 272 270 269 270 272 274 275 276 276 276 277 279 283 287 289 291 293 293 294 296 297 297 298 301
279 279 279 279 278 277 277 277 276 275 275 277 277 276 274 273 273 272 273 272 270 269 270 272 274 277 276 276 276 278 280 283 286 289 291 293 294 294 295 295 295 297 298
276 277 277 277 277 275 275 275 274 272 273 275 277 277 275 273 272 271 272 273 272 271 270 271 273 276 277 276 276 276 279 282 284 287 291 293 294 294 294 295 295 295 296
274 275 274 274 274 274 273 272 272 272 272 274 275 275 273 272 273 273 273 273 272 272 272 273 275 276 277 277 276 276 277 280 283 287 290 292 294 294 294 295 296 296 296
273 274 273 272 271 271 270 269 269 270 272 273 273 271 271 271 273 274 273 273 272 274 275 276 277 278 278 277 277 276 277 281 284 287 290 292 294 295 296 295 295 297 298
272 272 272 270 270 270 267 267 267 268 270 271 271 270 271 272 273 274 273 274 275 276 277 276 277 278 277 277 278 277 279 283 287 289 290 292 294 295 295 296 296 296 297
270 270 270 270 269 269 268 268 267 267 268 268 268 269 270 271 272 273 273 273 274 276 278 278 278 278 278 278 279 280 282 284 286 289 291 293 295 295 295 294 296 297 297
268 268 269 270 270 268 267 267 267 267 267 267 268 269 270 271 271 273 274 272 274 277 279 278 278 276 276 278 279 281 283 285 286 289 292 294 295 296 296 295 295 297 298
268 268 269 270 270 269 268 267 267 266 267 267 268 269 271 271 272 274 273 272 275 277 279 279 278 278 279 279 280 282 284 286 288 290 292 294 295 296 296 297 297 297 298
267 267 268 269 269 267 267 267 266 266 267 268 269 270 271 272 273 274 273 274 275 276 278 279 279 279 280 281 281 283 286 288 290 291 293 294 294 294 295 296 297 298 299
265 266 266 266 265 266 267 267 267 267 268 270 271 270 270 272 274 275 274 276 276 276 277 277 279 280 281 283 284 286 288 290 291 292 293 294 293 294 294 296 297 298 299
263 264 264 263 265 265 266 267 267 268 268 268 271 271 270 272 275 274 272 274 276 277 277 277 279 281 282 284 287 288 289 291 292 293 294 294 294 294 295 296 298 298 299
262 262 262 263 265 266 265 267 267 267 267 268 269 270 270 271 274 275 275 275 277 279 278 279 280 281 282 284 287 289 290 291 293 295 297 297 297 297 298 298 300 301 303
260 260 260 261 264 265 265 265 265 266 268 268 269 271 274 274 275 276 276 277 278 279 279 279 280 281 284 285 287 289 291 293 295 297 299 300 300 300 300 300 301 303 304
Height
5844 5843 5842 5842 5841 5841 5840 5840 5839 5839 5839 5838 5838 5838 5838 5838 5838 5838 5838 5837 5837 5837 5837 5836 5836 5836 5836 5835 5835 5834 5834 5834 5833 5832 5832 5831 5830 5829 5829 5828 5827 5826 5825
5841 5840 5840 5839 5839 5838 5838 5837 5837 5837 5836 5836 5836 5836 5836 5836 5836 5836 5836 5835 5835 5835 5834 5834 5834 5834 5834 5833 5833 5832 5832 5832 5831 5830 5830 5829 5828 5827 5826 5825 5825 5824 5822
5838 5837 5836 5836 5835 5835 5835 5834 5834 5834 5834 5834 5833 5833 5833 5833 5833 5833 5833 5833 5833 5833 5832 5832 5832 5832 5832 5831 5831 5830 5830 5829 5829 5828 5828 5827 5826 5825 5824 5822 5821 5820 5819
5834 5834 5833 5832 5832 5831 5831 5831 5830 5830 5830 5830 5830 5830 5830 5830 5830 5830 5830 5830 5830 5830 5830 5830 5830 5829 5829 5829 5829 5828 5828 5827 5827 5826 5825 5824 5823 5822 5821 5819 5818 5817 5815
5831 5830 5829 5828 5827 5827 5827 5827 5827 5826 5827 5827 5827 5827 5827 5827 5827 5827 5827 5827 5827 5827 5827 5827 5827 5827 5826 5826 5826 5826 5825 5824 5824 5823 5822 5821 5820 5819 5818 5816 5815 5813 5811
5828 5827 5825 5824 5823 5823 5822 5822 5822 5822 5822 5822 5822 5823 5823 5823 5823 5823 5823 5823 5823 5824 5824 5824 5824 5824 5823 5823 5823 5822 5822 5821 5821 5820 5819 5818 5817 5815 5814 5812 5810 5809 5807
5823 5822 5821 5820 5819 5818 5818 5818 5818 5817 5818 5818 5818 5818 5818 5819 5818 5819 5819 5819 5819 5820 5820 5820 5820 5820 5820 5819 5819 5819 5818 5817 5817 5816 5815 5813 5812 5811 5809 5808 5806 5804 5802
5818 5817 5816 5815 5814 5814 5813 5813 5813 5813 5813 5813 5814 5814 5814 5814 5814 5814 5814 5815 5815 5815 5816 5816 5816 5816 5816 5815 5815 5815 5814 5813 5812 5811 5810 5809 5807 5806 5805 5803 5801 5799 5797
5813 5812 5811 5810 5809 5809 5808 5808 5808 5808 5808 5808 5809 5809 5809 5809 5809 5809 5809 5810 5810 5810 5811 5811 5811 5811 5811 5811 5811 5810 5810 5809 5808 5806 5805 5804 5802 5801 5799 5797 5796 5794 5791
5807 5806 5805 5805 5804 5804 5803 5803 5803 5803 5803 5803 5803 5804 5804 5804 5804 5804 5804 5805 5805 5805 5806 5806 5806 5806 5806 5805 5805 5805 5805 5804 5803 5802 5800 5799 5797 5795 5793 5792 5790 5788 5785
5801 5800 5799 5799 5799 5798 5798 5798 5797 5797 5797 5797 5798 5798 5798 5798 5798 5798 5798 5799 5799 5799 5800 5800 5800 5800 5800 5800 5799 5799 5799 5798 5797 5796 5795 5793 5791 5790 5788 5785 5783 5781 5779
5794 5794 5793 5793 5792 5792 5792 5792 5792 5791 5791 5791 5792 5792 5792 5792 5792 5792 5792 5792 5793 5793 5793 5794 5794 5793 5793 5793 5793 5793 5792 5792 5791 5790 5789 5787 5785 5783 5781 5779 5777 5775 5772
5787 5787 5786 5786 5786 5786 5786 5786 5786 5785 5785 5785 5785 5785 5785 5786 5785 5786 5786 5786 5786 5786 5787 5787 5787 5787 5787 5786 5786 5786 5785 5785 5784 5783 5782 5781 5779 5777 5775 5773 5771 5768 5766
5780 5779 5779 5779 5779 5779 5779 5779 5779 5779 5779 5779 5779 5779 5779 5779 5779 5779 5779 5779 5779 5779 5780 5780 5780 5780 5780 5780 5779 5779 5778 5778 5777 5776 5775 5774 5772 5770 5768 5766 5764 5761 5759
5771 5772 5772 5772 5772 5772 5772 5772 5772 5772 5772 5772 5772 5772 5772 5772 5773 5773 5772 5773 5773 5773 5773 5773 5773 5773 5773 5773 5772 5772 5771 5771 5770 5769 5768 5766 5765 5763 5761 5758 5756 5754 5751
5762 5763 5763 5763 5763 5764 5764 5764 5764 5765 5765 5765 5765 5765 5765 5766 5766 5766 5766 5766 5765 5766 5766 5766 5766 5766 5766 5765 5765 5764 5764 5763 5762 5761 5760 5759 5757 5755 5753 5750 5748 5745 5743
5753 5753 5753 5754 5754 5755 5755 5756 5757 5757 5757 5758 5758 5758 5758 5759 5759 5759 5758 5758 5758 5758 5758 5758 5758 5758 5758 5757 5757 5757 5756 5755 5754 5753 5752 5751 5749 5747 5744 5742 5739 5737 5734
5743 5744 5744 5744 5745 5745 5746 5747 5748 5749 5749 5750 5750 5751 5751 5751 5752 5751 5751 5751 5751 5751 5751 5750 5750 5750 5750 5750 5749 5749 5748 5748 5746 5745 5744 5742 5740 5738 5735 5733 5730 5728 5725
5734 5734 5734 5734 5735 5736 5737 5738 5739 5740 5741 5742 5742 5743 5743 5743 5744 5744 5744 5744 5744 5743 5743 5742 5742 5742 5742 5742 5741 5741 5740 5740 5738 5737 5735 5733 5731 5729 5726 5724 5721 5718 5715
5725 5725 5726 5726 5727 5728 5728 5729 5731 5732 5733 5734 5735 5735 5735 5736 5736 5736 5736 5736 5736 5735 5735 5734 5734 5734 5734 5734 5733 5733 5732 5731 5730 5728 5726 5724 5722 5719 5717 5714 5711 5709 5706
5716 5717 5717 5718 5719 5720 5720 5721 5722 5723 5725 5726 5727 5727 5727 5728 5728 5728 5728 5728 5728 5728 5727 5727 5727 5726 5726 5726 5725 5724 5723 5722 5721 5719 5717 5715 5713 5710 5707 5704 5702 5699 5696
5708 5709 5710 5710 5711 5712 5712 5713 5714 5716 5717 5718 5719 5719 5719 5719 5720 5720 5720 5720 5720 5720 5720 5719 5719 5719 5718 5718 5717 5716 5715 5713 5712 5710 5708 5706 5703 5701 5698 5695 5692 5689 5686
5699 5700 5702 5703 5703 5704 5705 5706 5707 5708 5709 5710 5710 5711 5711 5711 5711 5712 5712 5712 5712 5712 5712 5712 5711 5711 5710 5709 5708 5707 5706 5705 5703 5701 5698 5696 5693 5691 5688 5685 5682 5679 5676
5691 5692 5694 5695 5696 5697 5697 5698 5699 5700 5701 5702 5703 5703 5703 5703 5703 5704 5704 5704 5704 5704 5704 5703 5703 5702 5702 5701 5700 5699 5697 5695 5693 5691 5689 5686 5684 5681 5679 5676 5673 5669 5666
5683 5684 5686 5687 5688 5689 5690 5691 5692 5692 5693 5694 5695 5695 5695 5695 5696 5696 5696 5696 5696 5696 5696 5695 5695 5694 5693 5692 5691 5690 5688 5686 5684 5682 5679 5677 5674 5672 5669 5666 5663 5659 5656
5675 5677 5678 5680 5681 5681 5682 5683 5684 5685 5686 5686 5687 5687 5688 5688 5688 5688 5688 5688 5688 5688 5688 5687 5686 5686 5685 5684 5682 5681 5679 5678 5676 5673 5671 5668 5666 5663 5660 5656 5653 5649 5646